Change the Weather History Date:

Sunday, October 21, 2012

  Actual Average Record
Temperature  
Mean Temperature 76 °F -  
Max Temperature 84 °F 84 °F 89 °F (1990)
Min Temperature 69 °F 70 °F 64 °F (2004)
Cooling Degree Days 12    
Growing Degree Days 26 (Base 50)    
Moisture  
Dew Point 61 °F    
Average Humidity 55    
Maximum Humidity 68    
Minimum Humidity 47    
Precipitation  
Precipitation 0.00 in - - ()
Sea Level Pressure  
Sea Level Pressure 29.97 in    
Wind  
Wind Speed 10 mph (NE)    
Max Wind Speed 23 mph    
Max Gust Speed 30 mph    
Visibility 10 miles    
Events      
Averages and records for this station are not official NWS values.
T = Trace of Precipitation, MM = Missing Value Source: NWS Daily Summary

Daily Weather History Graph

Daily Weather History Graph

Search for Another Location

Airport or City:

Trip Planner

Search our weather history database for the weather conditions in past years. The results will help you decide how hot, cold, wet, or windy it might be!

Date:

Astronomy

Oct. 21, 2012 Rise Set
Actual Time 6:26 AM HST 5:58 PM HST
Civil Twilight 6:03 AM HST 6:21 PM HST
Nautical Twilight 5:37 AM HST 6:47 PM HST
Astronomical Twilight 5:12 AM HST 7:13 PM HST
Moon 12:42 PM HST (10/21) No Moon Set
Length of Visible Light 12h 17m
Length of Day
11h 32m
Waxing Crescent, 47% of the Moon is Illuminated
Oct 21
Waxing Crescent
Oct 21
First Quarter
Oct 29
Full
Nov 6
Last Quarter
Nov 13
New

Hourly Weather History & Observations

Time (HST) Temp. Heat Index Dew Point Humidity Pressure Visibility Wind Dir Wind Speed Gust Speed Precip Events Conditions
12:54 AM - - - N/A% 29.99 in 10.0 mi NNE 8.1 mph - N/A   Clear
1:54 AM - - - N/A% 29.98 in 10.0 mi East 5.8 mph - N/A   Clear
2:54 AM - - - N/A% 29.96 in 10.0 mi NNE 6.9 mph - N/A   Clear
3:54 AM - - - N/A% 29.96 in 10.0 mi East 4.6 mph - N/A   Clear
4:54 AM - - - N/A% 29.96 in 10.0 mi Calm Calm - N/A   Clear
5:38 AM 73.4 °F - 55.4 °F 53% 29.96 in 10.0 mi East 6.9 mph - N/A   Clear
5:54 AM 73.4 °F - 55.9 °F 54% 29.97 in 10.0 mi NE 5.8 mph - N/A   Clear
6:54 AM 69.8 °F - 55.9 °F 61% 29.99 in 10.0 mi NE 9.2 mph - N/A   Clear
7:54 AM 73.4 °F - 62.1 °F 68% 30.00 in 10.0 mi NE 12.7 mph 18.4 mph N/A   Clear
8:54 AM 78.8 °F - 59.0 °F 51% 30.00 in 10.0 mi NE 15.0 mph 20.7 mph N/A   Clear
9:54 AM 80.6 °F 81.5 °F 61.0 °F 51% 30.00 in 10.0 mi NE 13.8 mph 19.6 mph N/A   Scattered Clouds
10:54 AM 80.6 °F 82.4 °F 64.9 °F 59% 29.99 in 10.0 mi NE 13.8 mph 21.9 mph N/A   Scattered Clouds
11:54 AM 80.6 °F 82.2 °F 64.0 °F 57% 29.97 in 10.0 mi NE 23.0 mph 29.9 mph N/A   Partly Cloudy
12:54 PM 82.4 °F 83.2 °F 62.1 °F 50% 29.94 in 10.0 mi NE 13.8 mph 28.8 mph N/A   Partly Cloudy
1:54 PM 84.2 °F 84.8 °F 62.1 °F 47% 29.93 in 10.0 mi NE 16.1 mph 25.3 mph N/A   Partly Cloudy
2:54 PM 84.2 °F 85.2 °F 63.0 °F 49% 29.92 in 10.0 mi NE 13.8 mph 23.0 mph N/A   Partly Cloudy
3:54 PM 82.4 °F 83.2 °F 62.1 °F 50% 29.93 in 10.0 mi NE 13.8 mph 26.5 mph N/A   Partly Cloudy
4:54 PM 80.6 °F 81.7 °F 62.1 °F 53% 29.93 in 10.0 mi NE 15.0 mph 24.2 mph N/A   Clear
5:54 PM 77.0 °F - 63.0 °F 62% 29.96 in 10.0 mi NE 16.1 mph 24.2 mph N/A   Clear
6:54 PM 75.2 °F - 63.0 °F 66% 29.97 in 10.0 mi ENE 11.5 mph 21.9 mph N/A   Partly Cloudy
7:54 PM - - - N/A% 29.98 in 10.0 mi NE 11.5 mph 21.9 mph N/A   Clear
8:54 PM - - - N/A% 30.00 in 10.0 mi ENE 8.1 mph - N/A   Clear
9:54 PM - - - N/A% 30.00 in 10.0 mi NE 10.4 mph 17.3 mph N/A   Clear
10:54 PM - - - N/A% 30.00 in 10.0 mi ENE 10.4 mph - N/A   Clear
11:54 PM - - - N/A% 29.99 in 10.0 mi ENE 12.7 mph 18.4 mph N/A   Clear